METEOR 2-5 DEB, 29293

Orbit data source: Space-Track

METEOR 2-5 DEB, 29293 is space debris in LEO originally from a launch on Wed, 31 Oct 1979 UTC launched from the Plesetsk Missile And Space Complex (PKMTR). Debris objects in space refer to the collection of defunct objects orbiting the Earth. Examples of debris include non-operational satellites, rocket bodies, and fragments generated from explosions, collisions, or faulty payload assembly.

Loading next visibility...
Identifier
29293, 1979-095S
Orbit
LEO
Country
Flag of CISCIS
Related business
Manufacturer
Unknown
Mission
Spacecraft
Bus & Motor
Unknown
Mass
Unknown
Launch date (UTC)
1979-10-31 (46 years ago)
Launch vehicle
Unknown
Launch site
Plesetsk Missile And Space Complex (PKMTR)
Object type
Payload
Rocket body
Debris
Shape & HBR
Unknown shape, 0.1 m
Radar Cross Section
Small (<0.1 m²)

Expand to show TLE details & history
Last TLE update: 3 days ago

TLE from 3 days ago
0 METEOR 2-5 DEB
1 29293U 79095S   25352.51158368  .00006032  00000-0  16840-2 0  9991
2 29293  81.1976 273.9780 0009804  40.2483 319.9432 14.46140725 89267
Epoch: 2025-12-18T12:16Z
TLE epoch observation values (Epoch: 2025-12-18T12:16:40.829Z)
Latitude
-0.00002°
Longitude
2.44184°
Altitude
735.89 km
Speed
7.49 km/s
True Right ascension
18h 15m 54s
True Declination
0° 00' 00"
Sunlit
Object was in daylight at epoch
Visualization orbit readout
Latitude
Unknown
Longitude
Unknown
Altitude
Unknown
Speed
Unknown
Apparent Right ascension
Unknown
Apparent Declination
Unknown
Sunlit
N/A
Visualization observer readout
Local Sidereal Time
12:21:38
Azimuth
Unknown
Elevation
Unknown
Doppler factor
Unknown
Orbital elements
Apogee altitude
742.384 km
Perigee altitude
728.435 km
Semi-major axis
7,113.547 km
Eccentricity
0.00098
Inclination
81.1976°
RAAN
273.978°
Arg. of periapsis
40.2483°
True anomaly
319.87083°
Mean anomaly
319.9432°
Eccentric anomaly
319.90702°
Mean motion
3.61754 °/min
Orbital period
99.52 mins
BSTAR
0.001684
Loading maneuver chart data...
Computing Atmospheric mass density...

Documentation

Showing up to 5 results
|